Time,TemperatureF,DewpointF,PressureIn,WindDirection,WindDirectionDegrees,WindSpeedMPH,WindSpeedGustMPH,Humidity,HourlyPrecipIn,Conditions,Clouds,dailyrainin,SoftwareType,DateUTC
2013-11-23 00:04:00,27.3,23.4,30.57,North,0,0.0,0.0,85,0.00,,,0.00,WUHU21623XXSP,2013-11-23 06:04:00,
2013-11-23 00:12:00,27.3,23.4,30.57,North,0,0.0,0.0,85,0.00,,,0.00,WUHU21623XXSP,2013-11-23 06:12:00,
2013-11-23 00:17:00,27.1,23.2,30.57,North,0,0.0,0.0,85,0.00,,,0.00,WUHU21623XXSP,2013-11-23 06:17:00,
2013-11-23 00:22:00,27.1,23.2,30.57,North,0,0.0,0.0,85,0.00,,,0.00,WUHU21623XXSP,2013-11-23 06:22:00,
2013-11-23 00:27:00,27.1,23.2,30.57,North,0,0.0,0.0,85,0.00,,,0.00,WUHU21623XXSP,2013-11-23 06:27:00,
2013-11-23 00:32:00,27.0,23.2,30.56,North,0,0.0,0.0,85,0.00,,,0.00,WUHU21623XXSP,2013-11-23 06:32:00,
2013-11-23 00:37:00,27.0,23.0,30.56,North,0,0.0,0.0,85,0.00,,,0.00,WUHU21623XXSP,2013-11-23 06:37:00,
2013-11-23 00:42:00,27.0,23.0,30.56,North,0,0.0,0.0,85,0.00,,,0.00,WUHU21623XXSP,2013-11-23 06:42:00,
2013-11-23 00:47:00,26.8,22.5,30.56,North,0,0.0,0.0,84,0.00,,,0.00,WUHU21623XXSP,2013-11-23 06:47:00,
2013-11-23 00:52:00,26.8,22.5,30.56,North,0,0.0,0.0,84,0.00,,,0.00,WUHU21623XXSP,2013-11-23 06:52:00,
2013-11-23 00:57:00,26.6,22.5,30.57,North,0,0.0,0.0,84,0.00,,,0.00,WUHU21623XXSP,2013-11-23 06:57:00,
2013-11-23 01:02:00,26.6,22.4,30.57,North,0,0.0,0.0,84,0.00,,,0.00,WUHU21623XXSP,2013-11-23 07:02:00,
2013-11-23 01:07:00,26.4,22.2,30.57,North,0,0.0,0.0,84,0.00,,,0.00,WUHU21623XXSP,2013-11-23 07:07:00,
2013-11-23 01:12:00,26.4,22.2,30.57,North,0,0.0,0.0,84,0.00,,,0.00,WUHU21623XXSP,2013-11-23 07:12:00,
2013-11-23 01:17:00,26.4,22.2,30.57,North,0,0.0,0.0,84,0.00,,,0.00,WUHU21623XXSP,2013-11-23 07:17:00,
2013-11-23 01:22:00,26.4,22.2,30.57,North,0,0.0,0.0,84,0.00,,,0.00,WUHU21623XXSP,2013-11-23 07:22:00,
2013-11-23 01:27:00,26.2,22.0,30.57,North,0,0.0,0.0,84,0.00,,,0.00,WUHU21623XXSP,2013-11-23 07:27:00,
2013-11-23 01:32:00,26.4,22.2,30.57,North,0,0.0,0.0,84,0.00,,,0.00,WUHU21623XXSP,2013-11-23 07:32:00,
2013-11-23 01:37:00,26.2,22.0,30.58,North,0,0.0,0.0,84,0.00,,,0.00,WUHU21623XXSP,2013-11-23 07:37:00,
2013-11-23 01:42:00,26.2,22.0,30.57,North,0,0.0,0.0,84,0.00,,,0.00,WUHU21623XXSP,2013-11-23 07:42:00,
2013-11-23 01:47:00,26.2,22.0,30.57,North,0,0.0,0.0,84,0.00,,,0.00,WUHU21623XXSP,2013-11-23 07:47:00,
2013-11-23 01:52:00,26.2,22.0,30.58,North,0,0.0,0.0,84,0.00,,,0.00,WUHU21623XXSP,2013-11-23 07:52:00,
2013-11-23 01:57:00,26.2,22.0,30.58,North,0,0.0,0.0,84,0.00,,,0.00,WUHU21623XXSP,2013-11-23 07:57:00,
2013-11-23 02:02:00,26.2,22.0,30.57,North,0,0.0,0.0,84,0.00,,,0.00,WUHU21623XXSP,2013-11-23 08:02:00,
2013-11-23 02:07:00,26.2,22.0,30.59,North,0,0.0,0.0,84,0.00,,,0.00,WUHU21623XXSP,2013-11-23 08:07:00,
2013-11-23 02:12:00,25.9,21.7,30.58,North,0,0.0,0.0,84,0.00,,,0.00,WUHU21623XXSP,2013-11-23 08:12:00,
2013-11-23 02:17:00,25.9,21.7,30.58,North,0,0.0,0.0,84,0.00,,,0.00,WUHU21623XXSP,2013-11-23 08:17:00,
2013-11-23 02:22:00,25.9,21.7,30.58,North,0,0.0,0.0,84,0.00,,,0.00,WUHU21623XXSP,2013-11-23 08:22:00,
2013-11-23 02:27:00,25.9,21.7,30.58,North,0,0.0,0.0,84,0.00,,,0.00,WUHU21623XXSP,2013-11-23 08:27:00,
2013-11-23 02:34:00,25.7,21.2,30.58,North,0,0.0,0.0,83,0.00,,,0.00,WUHU21623XXSP,2013-11-23 08:34:00,
2013-11-23 02:39:00,25.5,21.2,30.58,North,0,0.0,0.0,83,0.00,,,0.00,WUHU21623XXSP,2013-11-23 08:39:00,
2013-11-23 02:44:00,25.5,21.1,30.58,North,0,0.0,0.0,83,0.00,,,0.00,WUHU21623XXSP,2013-11-23 08:44:00,
2013-11-23 02:49:00,25.5,21.1,30.59,North,0,0.0,0.0,83,0.00,,,0.00,WUHU21623XXSP,2013-11-23 08:49:00,
2013-11-23 02:54:00,25.3,20.9,30.59,North,0,0.0,0.0,83,0.00,,,0.00,WUHU21623XXSP,2013-11-23 08:54:00,
2013-11-23 03:00:00,25.3,20.9,30.59,North,0,0.0,0.0,83,0.00,,,0.00,WUHU21623XXSP,2013-11-23 09:00:00,
2013-11-23 03:05:00,25.3,20.9,30.58,North,0,0.0,0.0,83,0.00,,,0.00,WUHU21623XXSP,2013-11-23 09:05:00,
2013-11-23 03:10:00,25.3,20.9,30.58,North,0,0.0,0.0,83,0.00,,,0.00,WUHU21623XXSP,2013-11-23 09:10:00,
2013-11-23 03:15:00,25.3,20.9,30.58,North,0,0.0,0.0,83,0.00,,,0.00,WUHU21623XXSP,2013-11-23 09:15:00,
2013-11-23 03:20:00,25.2,20.7,30.58,North,0,0.0,0.0,83,0.00,,,0.00,WUHU21623XXSP,2013-11-23 09:20:00,
2013-11-23 03:25:00,25.2,20.7,30.58,North,0,0.0,0.0,83,0.00,,,0.00,WUHU21623XXSP,2013-11-23 09:25:00,
2013-11-23 03:30:00,25.3,20.9,30.58,North,0,0.0,0.0,83,0.00,,,0.00,WUHU21623XXSP,2013-11-23 09:30:00,
2013-11-23 03:35:00,25.3,20.9,30.58,North,0,0.0,0.0,83,0.00,,,0.00,WUHU21623XXSP,2013-11-23 09:35:00,
2013-11-23 03:40:00,25.3,20.9,30.57,North,0,0.0,0.0,83,0.00,,,0.00,WUHU21623XXSP,2013-11-23 09:40:00,
2013-11-23 03:45:00,25.3,20.9,30.57,North,0,0.0,0.0,83,0.00,,,0.00,WUHU21623XXSP,2013-11-23 09:45:00,
2013-11-23 03:50:00,25.3,20.9,30.57,North,0,0.0,0.0,83,0.00,,,0.00,WUHU21623XXSP,2013-11-23 09:50:00,
2013-11-23 03:55:00,25.2,20.7,30.57,North,0,0.0,0.0,83,0.00,,,0.00,WUHU21623XXSP,2013-11-23 09:55:00,
2013-11-23 04:00:00,25.2,20.7,30.57,North,0,0.0,0.0,83,0.00,,,0.00,WUHU21623XXSP,2013-11-23 10:00:00,
2013-11-23 04:05:00,25.2,20.7,30.57,North,0,0.0,0.0,83,0.00,,,0.00,WUHU21623XXSP,2013-11-23 10:05:00,
2013-11-23 04:10:00,25.2,20.7,30.57,North,0,0.0,0.0,83,0.00,,,0.00,WUHU21623XXSP,2013-11-23 10:10:00,
2013-11-23 04:15:00,25.2,20.7,30.57,North,0,0.0,0.0,83,0.00,,,0.00,WUHU21623XXSP,2013-11-23 10:15:00,
2013-11-23 04:20:00,25.2,20.7,30.57,North,0,0.0,0.0,83,0.00,,,0.00,WUHU21623XXSP,2013-11-23 10:20:00,
2013-11-23 04:25:00,25.3,20.6,30.57,North,0,0.0,0.0,82,0.00,,,0.00,WUHU21623XXSP,2013-11-23 10:25:00,
2013-11-23 04:30:00,25.2,20.4,30.58,North,0,0.0,0.0,82,0.00,,,0.00,WUHU21623XXSP,2013-11-23 10:30:00,
2013-11-23 04:35:00,25.2,20.4,30.58,North,0,0.0,0.0,82,0.00,,,0.00,WUHU21623XXSP,2013-11-23 10:35:00,
2013-11-23 04:40:00,25.2,20.4,30.59,North,0,0.0,0.0,82,0.00,,,0.00,WUHU21623XXSP,2013-11-23 10:40:00,
2013-11-23 04:45:00,25.2,20.4,30.59,North,0,0.0,0.0,82,0.00,,,0.00,WUHU21623XXSP,2013-11-23 10:45:00,
2013-11-23 04:50:00,25.2,20.4,30.59,North,0,0.0,0.0,82,0.00,,,0.00,WUHU21623XXSP,2013-11-23 10:50:00,
2013-11-23 04:55:00,25.2,20.4,30.59,North,0,0.0,0.0,81,0.00,,,0.00,WUHU21623XXSP,2013-11-23 10:55:00,
2013-11-23 05:00:00,25.3,20.3,30.59,North,0,0.0,0.0,81,0.00,,,0.00,WUHU21623XXSP,2013-11-23 11:00:00,
2013-11-23 05:05:00,25.3,20.3,30.59,North,0,0.0,0.0,81,0.00,,,0.00,WUHU21623XXSP,2013-11-23 11:05:00,
2013-11-23 05:10:00,25.3,20.3,30.60,North,0,0.0,0.0,81,0.00,,,0.00,WUHU21623XXSP,2013-11-23 11:10:00,
2013-11-23 05:15:00,25.5,19.9,30.59,North,0,0.0,0.0,79,0.00,,,0.00,WUHU21623XXSP,2013-11-23 11:15:00,
2013-11-23 05:20:00,25.5,19.9,30.60,North,0,0.0,0.0,79,0.00,,,0.00,WUHU21623XXSP,2013-11-23 11:20:00,
2013-11-23 05:25:00,25.5,19.6,30.60,North,0,0.0,0.0,78,0.00,,,0.00,WUHU21623XXSP,2013-11-23 11:25:00,
2013-11-23 05:30:00,25.5,19.3,30.60,North,0,0.0,0.0,77,0.00,,,0.00,WUHU21623XXSP,2013-11-23 11:30:00,
2013-11-23 05:35:00,25.5,19.3,30.60,North,0,0.0,0.0,77,0.00,,,0.00,WUHU21623XXSP,2013-11-23 11:35:00,
2013-11-23 05:40:00,25.5,19.3,30.60,North,0,0.0,0.0,77,0.00,,,0.00,WUHU21623XXSP,2013-11-23 11:40:00,
2013-11-23 05:45:00,25.5,18.9,30.60,North,0,0.0,0.0,76,0.00,,,0.00,WUHU21623XXSP,2013-11-23 11:45:00,
2013-11-23 05:50:00,25.5,18.9,30.60,North,0,0.0,0.0,76,0.00,,,0.00,WUHU21623XXSP,2013-11-23 11:50:00,
2013-11-23 05:55:00,25.5,18.9,30.60,North,0,0.0,0.0,76,0.00,,,0.00,WUHU21623XXSP,2013-11-23 11:55:00,
2013-11-23 06:00:00,25.5,18.9,30.60,North,0,0.0,0.0,76,0.00,,,0.00,WUHU21623XXSP,2013-11-23 12:00:00,
2013-11-23 06:05:00,25.5,18.9,30.60,North,0,0.0,0.0,76,0.00,,,0.00,WUHU21623XXSP,2013-11-23 12:05:00,
2013-11-23 06:10:00,25.5,18.9,30.60,North,0,0.0,0.0,76,0.00,,,0.00,WUHU21623XXSP,2013-11-23 12:10:00,
2013-11-23 06:15:00,25.5,18.9,30.61,North,0,0.0,0.0,76,0.00,,,0.00,WUHU21623XXSP,2013-11-23 12:15:00,
2013-11-23 06:20:00,25.5,18.9,30.62,North,0,0.0,0.0,76,0.00,,,0.00,WUHU21623XXSP,2013-11-23 12:20:00,
2013-11-23 06:25:00,25.5,18.6,30.61,North,0,0.0,0.0,75,0.00,,,0.00,WUHU21623XXSP,2013-11-23 12:25:00,
2013-11-23 06:30:00,25.5,18.6,30.62,North,0,0.0,0.0,75,0.00,,,0.00,WUHU21623XXSP,2013-11-23 12:30:00,
2013-11-23 06:35:00,25.5,18.6,30.62,North,0,0.0,0.0,75,0.00,,,0.00,WUHU21623XXSP,2013-11-23 12:35:00,
2013-11-23 06:40:00,25.5,18.6,30.62,North,0,0.0,0.0,75,0.00,,,0.00,WUHU21623XXSP,2013-11-23 12:40:00,
2013-11-23 06:45:00,25.5,18.6,30.62,North,0,0.0,0.0,75,0.00,,,0.00,WUHU21623XXSP,2013-11-23 12:45:00,
2013-11-23 06:50:00,25.5,18.6,30.62,North,0,0.0,0.0,75,0.00,,,0.00,WUHU21623XXSP,2013-11-23 12:50:00,
2013-11-23 06:55:00,25.5,18.6,30.62,North,0,0.0,0.0,75,0.00,,,0.00,WUHU21623XXSP,2013-11-23 12:55:00,
2013-11-23 07:00:00,25.5,18.9,30.62,North,0,0.0,0.0,76,0.00,,,0.00,WUHU21623XXSP,2013-11-23 13:00:00,
2013-11-23 07:05:00,25.5,18.9,30.63,North,0,0.0,0.0,76,0.00,,,0.00,WUHU21623XXSP,2013-11-23 13:05:00,
2013-11-23 07:10:00,25.5,18.9,30.63,North,0,0.0,0.0,76,0.00,,,0.00,WUHU21623XXSP,2013-11-23 13:10:00,
2013-11-23 07:15:00,25.5,18.9,30.63,North,0,0.0,0.0,76,0.00,,,0.00,WUHU21623XXSP,2013-11-23 13:15:00,
2013-11-23 07:20:00,25.5,18.9,30.63,North,0,0.0,0.0,76,0.00,,,0.00,WUHU21623XXSP,2013-11-23 13:20:00,
2013-11-23 07:25:00,25.5,18.9,30.64,North,0,0.0,0.0,76,0.00,,,0.00,WUHU21623XXSP,2013-11-23 13:25:00,
2013-11-23 07:30:00,25.5,18.9,30.64,North,0,0.0,0.0,76,0.00,,,0.00,WUHU21623XXSP,2013-11-23 13:30:00,
2013-11-23 07:35:00,25.5,18.9,30.64,North,0,0.0,0.0,76,0.00,,,0.00,WUHU21623XXSP,2013-11-23 13:35:00,
2013-11-23 07:40:00,25.7,19.1,30.64,North,0,0.0,0.0,76,0.00,,,0.00,WUHU21623XXSP,2013-11-23 13:40:00,
2013-11-23 07:45:00,25.7,18.8,30.64,North,0,0.0,0.0,75,0.00,,,0.00,WUHU21623XXSP,2013-11-23 13:45:00,
2013-11-23 07:50:00,25.9,19.0,30.65,North,0,0.0,0.0,75,0.00,,,0.00,WUHU21623XXSP,2013-11-23 13:50:00,
2013-11-23 07:55:00,25.9,19.0,30.65,North,0,0.0,0.0,75,0.00,,,0.00,WUHU21623XXSP,2013-11-23 13:55:00,
2013-11-23 08:00:00,26.1,19.0,30.65,North,0,0.0,0.0,75,0.00,,,0.00,WUHU21623XXSP,2013-11-23 14:00:00,
2013-11-23 08:05:00,26.1,19.1,30.66,North,0,0.0,0.0,75,0.00,,,0.00,WUHU21623XXSP,2013-11-23 14:05:00,
2013-11-23 08:10:00,26.1,19.1,30.66,North,0,0.0,0.0,75,0.00,,,0.00,WUHU21623XXSP,2013-11-23 14:10:00,
2013-11-23 08:15:00,25.9,19.0,30.66,North,0,0.0,0.0,75,0.00,,,0.00,WUHU21623XXSP,2013-11-23 14:15:00,
2013-11-23 08:20:00,25.9,19.0,30.66,North,0,0.0,0.0,75,0.00,,,0.00,WUHU21623XXSP,2013-11-23 14:20:00,
2013-11-23 08:25:00,25.9,18.7,30.66,North,0,0.0,0.0,74,0.00,,,0.00,WUHU21623XXSP,2013-11-23 14:25:00,
2013-11-23 08:30:00,25.9,18.7,30.66,North,0,0.0,0.0,74,0.00,,,0.00,WUHU21623XXSP,2013-11-23 14:30:00,
2013-11-23 08:35:00,25.9,18.7,30.66,North,0,0.0,0.0,74,0.00,,,0.00,WUHU21623XXSP,2013-11-23 14:35:00,
2013-11-23 08:40:00,26.1,18.8,30.66,North,0,0.0,0.0,74,0.00,,,0.00,WUHU21623XXSP,2013-11-23 14:40:00,
2013-11-23 08:45:00,26.2,19.0,30.67,North,0,0.0,0.0,74,0.00,,,0.00,WUHU21623XXSP,2013-11-23 14:45:00,
2013-11-23 08:50:00,26.2,19.0,30.67,North,0,0.0,0.0,74,0.00,,,0.00,WUHU21623XXSP,2013-11-23 14:50:00,
2013-11-23 08:55:00,26.2,19.0,30.67,North,0,0.0,0.0,74,0.00,,,0.00,WUHU21623XXSP,2013-11-23 14:55:00,
2013-11-23 09:00:00,26.2,19.0,30.67,North,0,0.0,0.0,74,0.00,,,0.00,WUHU21623XXSP,2013-11-23 15:00:00,
2013-11-23 09:05:00,26.1,18.5,30.67,North,0,0.0,0.0,73,0.00,,,0.00,WUHU21623XXSP,2013-11-23 15:05:00,
2013-11-23 09:10:00,26.2,18.7,30.67,North,0,0.0,0.0,73,0.00,,,0.00,WUHU21623XXSP,2013-11-23 15:10:00,
2013-11-23 09:15:00,26.4,18.4,30.67,North,0,0.0,0.0,73,0.00,,,0.00,WUHU21623XXSP,2013-11-23 15:15:00,
2013-11-23 09:20:00,26.4,18.6,30.68,North,0,0.0,0.0,72,0.00,,,0.00,WUHU21623XXSP,2013-11-23 15:20:00,
2013-11-23 09:25:00,26.4,18.6,30.68,North,0,0.0,0.0,72,0.00,,,0.00,WUHU21623XXSP,2013-11-23 15:25:00,
2013-11-23 09:30:00,26.4,18.6,30.68,North,0,0.0,0.0,72,0.00,,,0.00,WUHU21623XXSP,2013-11-23 15:30:00,
2013-11-23 09:35:00,26.6,18.4,30.68,North,0,0.0,0.0,71,0.00,,,0.00,WUHU21623XXSP,2013-11-23 15:35:00,
2013-11-23 09:40:00,27.0,18.8,30.68,North,0,0.0,0.0,71,0.00,,,0.00,WUHU21623XXSP,2013-11-23 15:40:00,
2013-11-23 09:45:00,27.0,18.8,30.68,North,0,0.0,0.0,71,0.00,,,0.00,WUHU21623XXSP,2013-11-23 15:45:00,
2013-11-23 09:50:00,27.1,18.7,30.68,North,0,0.0,0.0,70,0.00,,,0.00,WUHU21623XXSP,2013-11-23 15:50:00,
2013-11-23 09:55:00,27.1,18.7,30.69,North,0,0.0,0.0,70,0.00,,,0.00,WUHU21623XXSP,2013-11-23 15:55:00,
2013-11-23 10:00:00,27.1,18.3,30.69,North,0,0.0,0.0,69,0.00,,,0.00,WUHU21623XXSP,2013-11-23 16:00:00,
2013-11-23 10:05:00,27.3,18.1,30.69,North,0,0.0,0.0,68,0.00,,,0.00,WUHU21623XXSP,2013-11-23 16:05:00,
2013-11-23 10:10:00,27.3,18.0,30.69,North,0,0.0,0.0,68,0.00,,,0.00,WUHU21623XXSP,2013-11-23 16:10:00,
2013-11-23 10:15:00,27.5,18.3,30.70,North,0,0.0,0.0,68,0.00,,,0.00,WUHU21623XXSP,2013-11-23 16:15:00,
2013-11-23 10:20:00,27.5,18.3,30.69,North,0,0.0,0.0,68,0.00,,,0.00,WUHU21623XXSP,2013-11-23 16:20:00,
2013-11-23 10:25:00,27.5,18.0,30.70,North,0,0.0,0.0,67,0.00,,,0.00,WUHU21623XXSP,2013-11-23 16:25:00,
2013-11-23 10:30:00,27.3,17.8,30.70,North,0,0.0,0.0,66,0.00,,,0.00,WUHU21623XXSP,2013-11-23 16:30:00,
2013-11-23 10:35:00,27.1,16.9,30.70,North,0,0.0,0.0,65,0.00,,,0.00,WUHU21623XXSP,2013-11-23 16:35:00,
2013-11-23 10:40:00,27.0,16.0,30.70,North,0,0.0,0.0,63,0.00,,,0.00,WUHU21623XXSP,2013-11-23 16:40:00,
2013-11-23 10:45:00,26.8,15.8,30.70,North,0,0.0,0.0,63,0.00,,,0.00,WUHU21623XXSP,2013-11-23 16:45:00,
2013-11-23 10:50:00,27.1,16.2,30.70,North,0,0.0,0.0,63,0.00,,,0.00,WUHU21623XXSP,2013-11-23 16:50:00,
2013-11-23 10:55:00,27.1,16.2,30.70,North,0,0.0,0.0,63,0.00,,,0.00,WUHU21623XXSP,2013-11-23 16:55:00,
2013-11-23 11:00:00,27.3,16.0,30.70,North,0,0.0,0.0,62,0.00,,,0.00,WUHU21623XXSP,2013-11-23 17:00:00,
2013-11-23 11:05:00,27.5,16.0,30.70,North,0,0.0,0.0,62,0.00,,,0.00,WUHU21623XXSP,2013-11-23 17:05:00,
2013-11-23 11:10:00,28.0,16.3,30.69,North,0,0.0,0.0,62,0.00,,,0.00,WUHU21623XXSP,2013-11-23 17:10:00,
2013-11-23 11:15:00,28.2,16.2,30.69,North,0,0.0,0.0,60,0.00,,,0.00,WUHU21623XXSP,2013-11-23 17:15:00,
2013-11-23 11:20:00,28.6,15.7,30.70,North,0,0.0,0.0,59,0.00,,,0.00,WUHU21623XXSP,2013-11-23 17:20:00,
2013-11-23 11:25:00,28.8,16.3,30.68,North,0,0.0,0.0,59,0.00,,,0.00,WUHU21623XXSP,2013-11-23 17:25:00,
2013-11-23 11:30:00,28.9,16.0,30.69,North,0,0.0,0.0,58,0.00,,,0.00,WUHU21623XXSP,2013-11-23 17:30:00,
2013-11-23 11:35:00,28.8,15.8,30.69,North,0,0.0,0.0,58,0.00,,,0.00,WUHU21623XXSP,2013-11-23 17:35:00,
2013-11-23 11:40:00,28.8,15.8,30.69,North,0,0.0,0.0,58,0.00,,,0.00,WUHU21623XXSP,2013-11-23 17:40:00,
2013-11-23 11:45:00,28.9,16.0,30.68,North,0,0.0,0.0,58,0.00,,,0.00,WUHU21623XXSP,2013-11-23 17:45:00,
2013-11-23 11:50:00,29.1,16.2,30.68,North,0,0.0,0.0,58,0.00,,,0.00,WUHU21623XXSP,2013-11-23 17:50:00,
2013-11-23 11:55:00,29.3,15.9,30.69,North,0,0.0,0.0,57,0.00,,,0.00,WUHU21623XXSP,2013-11-23 17:55:00,
2013-11-23 12:00:00,29.3,15.5,30.69,North,0,0.0,0.0,56,0.00,,,0.00,WUHU21623XXSP,2013-11-23 18:00:00,
2013-11-23 12:05:00,29.5,15.5,30.68,North,0,0.0,0.0,56,0.00,,,0.00,WUHU21623XXSP,2013-11-23 18:05:00,
2013-11-23 12:10:00,29.8,15.6,30.68,North,0,0.0,0.0,55,0.00,,,0.00,WUHU21623XXSP,2013-11-23 18:10:00,
2013-11-23 12:15:00,30.0,15.3,30.69,North,0,0.0,0.0,53,0.00,,,0.00,WUHU21623XXSP,2013-11-23 18:15:00,
2013-11-23 12:20:00,30.0,14.9,30.69,North,0,0.0,0.0,53,0.00,,,0.00,WUHU21623XXSP,2013-11-23 18:20:00,
2013-11-23 12:25:00,29.8,14.7,30.69,North,0,0.0,0.0,54,0.00,,,0.00,WUHU21623XXSP,2013-11-23 18:25:00,
2013-11-23 12:30:00,29.8,15.2,30.69,North,0,0.0,0.0,54,0.00,,,0.00,WUHU21623XXSP,2013-11-23 18:30:00,
2013-11-23 12:35:00,29.5,15.4,30.69,North,0,0.0,0.0,55,0.00,,,0.00,WUHU21623XXSP,2013-11-23 18:35:00,
2013-11-23 12:40:00,29.5,15.2,30.69,North,0,0.0,0.0,55,0.00,,,0.00,WUHU21623XXSP,2013-11-23 18:40:00,
2013-11-23 12:45:00,29.3,15.2,30.69,North,0,0.0,0.0,54,0.00,,,0.00,WUHU21623XXSP,2013-11-23 18:45:00,
2013-11-23 12:50:00,29.1,14.5,30.69,North,0,0.0,0.0,54,0.00,,,0.00,WUHU21623XXSP,2013-11-23 18:50:00,
2013-11-23 12:55:00,28.9,14.3,30.69,North,0,0.0,0.0,54,0.00,,,0.00,WUHU21623XXSP,2013-11-23 18:55:00,
2013-11-23 13:00:00,28.9,14.8,30.69,North,0,0.0,0.0,55,0.00,,,0.00,WUHU21623XXSP,2013-11-23 19:00:00,
2013-11-23 13:05:00,29.1,14.9,30.69,North,0,0.0,0.0,55,0.00,,,0.00,WUHU21623XXSP,2013-11-23 19:05:00,
2013-11-23 13:10:00,28.8,14.2,30.70,North,0,0.0,0.0,54,0.00,,,0.00,WUHU21623XXSP,2013-11-23 19:10:00,
2013-11-23 13:15:00,28.4,13.4,30.69,North,0,0.0,0.0,53,0.00,,,0.00,WUHU21623XXSP,2013-11-23 19:15:00,
2013-11-23 13:20:00,28.2,12.8,30.69,North,0,0.0,0.0,52,0.00,,,0.00,WUHU21623XXSP,2013-11-23 19:20:00,
2013-11-23 13:25:00,28.2,13.3,30.69,North,0,0.0,0.0,53,0.00,,,0.00,WUHU21623XXSP,2013-11-23 19:25:00,
2013-11-23 13:30:00,28.2,13.3,30.69,North,0,0.0,0.0,53,0.00,,,0.00,WUHU21623XXSP,2013-11-23 19:30:00,
2013-11-23 13:35:00,28.2,13.3,30.69,North,0,0.0,0.0,53,0.00,,,0.00,WUHU21623XXSP,2013-11-23 19:35:00,
2013-11-23 13:40:00,28.2,13.3,30.69,North,0,0.0,0.0,53,0.00,,,0.00,WUHU21623XXSP,2013-11-23 19:40:00,
2013-11-23 13:45:00,28.0,13.1,30.69,North,0,0.0,0.0,54,0.00,,,0.00,WUHU21623XXSP,2013-11-23 19:45:00,
2013-11-23 13:50:00,28.0,13.1,30.69,North,0,0.0,0.0,53,0.00,,,0.00,WUHU21623XXSP,2013-11-23 19:50:00,
2013-11-23 13:55:00,28.0,13.5,30.69,North,0,0.0,0.0,54,0.00,,,0.00,WUHU21623XXSP,2013-11-23 19:55:00,
2013-11-23 14:00:00,27.9,12.9,30.69,North,0,0.0,0.0,53,0.00,,,0.00,WUHU21623XXSP,2013-11-23 20:00:00,
2013-11-23 14:05:00,27.7,12.3,30.69,North,0,0.0,0.0,53,0.00,,,0.00,WUHU21623XXSP,2013-11-23 20:05:00,
2013-11-23 14:10:00,27.7,12.7,30.70,North,0,0.0,0.0,53,0.00,,,0.00,WUHU21623XXSP,2013-11-23 20:10:00,
2013-11-23 14:15:00,27.5,12.5,30.70,North,0,0.0,0.0,53,0.00,,,0.00,WUHU21623XXSP,2013-11-23 20:15:00,
2013-11-23 14:20:00,27.7,12.5,30.69,North,0,0.0,0.0,53,0.00,,,0.00,WUHU21623XXSP,2013-11-23 20:20:00,
2013-11-23 14:25:00,27.7,12.7,30.70,North,0,0.0,0.0,53,0.00,,,0.00,WUHU21623XXSP,2013-11-23 20:25:00,
2013-11-23 14:31:00,27.7,13.1,30.70,North,0,0.0,0.0,54,0.00,,,0.00,WUHU21623XXSP,2013-11-23 20:31:00,
2013-11-23 14:36:00,27.7,13.1,30.69,North,0,0.0,0.0,54,0.00,,,0.00,WUHU21623XXSP,2013-11-23 20:36:00,
2013-11-23 14:41:00,27.5,13.0,30.70,North,0,0.0,0.0,54,0.00,,,0.00,WUHU21623XXSP,2013-11-23 20:41:00,
2013-11-23 14:46:00,27.3,12.8,30.70,North,0,0.0,0.0,54,0.00,,,0.00,WUHU21623XXSP,2013-11-23 20:46:00,
2013-11-23 14:51:00,27.1,12.2,30.70,North,0,0.0,0.0,53,0.00,,,0.00,WUHU21623XXSP,2013-11-23 20:51:00,
2013-11-23 14:56:00,27.0,12.2,30.70,North,0,0.0,0.0,53,0.00,,,0.00,WUHU21623XXSP,2013-11-23 20:56:00,
2013-11-23 15:01:00,26.8,11.8,30.70,North,0,0.0,0.0,53,0.00,,,0.00,WUHU21623XXSP,2013-11-23 21:01:00,
2013-11-23 15:06:00,26.4,11.9,30.70,North,0,0.0,0.0,54,0.00,,,0.00,WUHU21623XXSP,2013-11-23 21:06:00,
2013-11-23 15:11:00,26.4,11.9,30.70,North,0,0.0,0.0,54,0.00,,,0.00,WUHU21623XXSP,2013-11-23 21:11:00,
2013-11-23 15:16:00,26.6,12.5,30.71,North,0,0.0,0.0,55,0.00,,,0.00,WUHU21623XXSP,2013-11-23 21:16:00,
2013-11-23 15:21:00,26.8,12.2,30.71,North,0,0.0,0.0,54,0.00,,,0.00,WUHU21623XXSP,2013-11-23 21:21:00,
2013-11-23 15:26:00,26.8,11.8,30.71,North,0,0.0,0.0,53,0.00,,,0.00,WUHU21623XXSP,2013-11-23 21:26:00,
2013-11-23 15:31:00,27.0,12.0,30.71,North,0,0.0,0.0,53,0.00,,,0.00,WUHU21623XXSP,2013-11-23 21:31:00,
2013-11-23 15:36:00,27.0,12.4,30.71,North,0,0.0,0.0,54,0.00,,,0.00,WUHU21623XXSP,2013-11-23 21:36:00,
2013-11-23 15:41:00,26.8,12.2,30.71,North,0,0.0,0.0,54,0.00,,,0.00,WUHU21623XXSP,2013-11-23 21:41:00,
2013-11-23 15:46:00,26.6,11.6,30.71,North,0,0.0,0.0,53,0.00,,,0.00,WUHU21623XXSP,2013-11-23 21:46:00,
2013-11-23 15:51:00,26.4,11.6,30.71,North,0,0.0,0.0,54,0.00,,,0.00,WUHU21623XXSP,2013-11-23 21:51:00,
2013-11-23 15:56:00,26.4,11.9,30.71,North,0,0.0,0.0,54,0.00,,,0.00,WUHU21623XXSP,2013-11-23 21:56:00,
2013-11-23 16:01:00,26.4,11.9,30.71,North,0,0.0,0.0,54,0.00,,,0.00,WUHU21623XXSP,2013-11-23 22:01:00,
2013-11-23 16:06:00,26.1,11.3,30.72,North,0,0.0,0.0,53,0.00,,,0.00,WUHU21623XXSP,2013-11-23 22:06:00,
2013-11-23 16:11:00,25.7,10.6,30.72,North,0,0.0,0.0,53,0.00,,,0.00,WUHU21623XXSP,2013-11-23 22:11:00,
2013-11-23 16:16:00,25.5,10.7,30.72,North,0,0.0,0.0,53,0.00,,,0.00,WUHU21623XXSP,2013-11-23 22:16:00,
2013-11-23 16:21:00,25.0,10.6,30.72,North,0,0.0,0.0,54,0.00,,,0.00,WUHU21623XXSP,2013-11-23 22:21:00,
2013-11-23 16:26:00,24.8,10.4,30.72,North,0,0.0,0.0,54,0.00,,,0.00,WUHU21623XXSP,2013-11-23 22:26:00,
2013-11-23 16:31:00,24.6,10.3,30.72,North,0,0.0,0.0,54,0.00,,,0.00,WUHU21623XXSP,2013-11-23 22:31:00,
2013-11-23 16:36:00,24.4,10.5,30.72,North,0,0.0,0.0,55,0.00,,,0.00,WUHU21623XXSP,2013-11-23 22:36:00,
2013-11-23 16:41:00,24.1,10.2,30.72,North,0,0.0,0.0,55,0.00,,,0.00,WUHU21623XXSP,2013-11-23 22:41:00,
2013-11-23 16:46:00,23.9,10.6,30.72,North,0,0.0,0.0,56,0.00,,,0.00,WUHU21623XXSP,2013-11-23 22:46:00,
2013-11-23 16:51:00,23.5,10.0,30.72,North,0,0.0,0.0,56,0.00,,,0.00,WUHU21623XXSP,2013-11-23 22:51:00,
2013-11-23 16:56:00,23.4,9.9,30.72,North,0,0.0,0.0,56,0.00,,,0.00,WUHU21623XXSP,2013-11-23 22:56:00,
2013-11-23 17:01:00,23.2,9.7,30.72,North,0,0.0,0.0,56,0.00,,,0.00,WUHU21623XXSP,2013-11-23 23:01:00,
2013-11-23 17:06:00,22.8,9.8,30.72,North,0,0.0,0.0,57,0.00,,,0.00,WUHU21623XXSP,2013-11-23 23:06:00,
2013-11-23 17:11:00,22.8,9.8,30.73,North,0,0.0,0.0,57,0.00,,,0.00,WUHU21623XXSP,2013-11-23 23:11:00,
2013-11-23 17:16:00,22.6,9.6,30.72,North,0,0.0,0.0,58,0.00,,,0.00,WUHU21623XXSP,2013-11-23 23:16:00,
2013-11-23 17:21:00,22.3,9.7,30.73,North,0,0.0,0.0,58,0.00,,,0.00,WUHU21623XXSP,2013-11-23 23:21:00,
2013-11-23 17:26:00,22.1,9.7,30.73,North,0,0.0,0.0,58,0.00,,,0.00,WUHU21623XXSP,2013-11-23 23:26:00,
2013-11-23 17:31:00,21.9,9.3,30.73,North,0,0.0,0.0,58,0.00,,,0.00,WUHU21623XXSP,2013-11-23 23:31:00,
2013-11-23 17:36:00,21.9,9.7,30.73,North,0,0.0,0.0,59,0.00,,,0.00,WUHU21623XXSP,2013-11-23 23:36:00,
2013-11-23 17:41:00,21.7,9.6,30.72,North,0,0.0,0.0,59,0.00,,,0.00,WUHU21623XXSP,2013-11-23 23:41:00,
2013-11-23 17:46:00,21.6,9.4,30.73,North,0,0.0,0.0,59,0.00,,,0.00,WUHU21623XXSP,2013-11-23 23:46:00,
2013-11-23 17:51:00,21.4,9.7,30.73,North,0,0.0,0.0,60,0.00,,,0.00,WUHU21623XXSP,2013-11-23 23:51:00,
2013-11-23 17:56:00,21.4,9.7,30.73,North,0,0.0,0.0,60,0.00,,,0.00,WUHU21623XXSP,2013-11-23 23:56:00,
2013-11-23 18:01:00,21.0,9.3,30.73,North,0,0.0,0.0,60,0.00,,,0.00,WUHU21623XXSP,2013-11-24 00:01:00,
2013-11-23 18:06:00,21.0,9.3,30.73,North,0,0.0,0.0,60,0.00,,,0.00,WUHU21623XXSP,2013-11-24 00:06:00,
2013-11-23 18:11:00,21.0,9.3,30.73,North,0,0.0,0.0,60,0.00,,,0.00,WUHU21623XXSP,2013-11-24 00:11:00,
2013-11-23 18:16:00,20.8,9.1,30.73,North,0,0.0,0.0,60,0.00,,,0.00,WUHU21623XXSP,2013-11-24 00:16:00,
2013-11-23 18:21:00,20.8,9.5,30.73,North,0,0.0,0.0,61,0.00,,,0.00,WUHU21623XXSP,2013-11-24 00:21:00,
2013-11-23 18:26:00,20.7,9.3,30.73,North,0,0.0,0.0,61,0.00,,,0.00,WUHU21623XXSP,2013-11-24 00:26:00,
2013-11-23 18:31:00,20.5,9.1,30.74,North,0,0.0,0.0,61,0.00,,,0.00,WUHU21623XXSP,2013-11-24 00:31:00,
2013-11-23 18:36:00,20.1,8.9,30.74,North,0,0.0,0.0,61,0.00,,,0.00,WUHU21623XXSP,2013-11-24 00:36:00,
2013-11-23 18:41:00,20.1,8.8,30.74,North,0,0.0,0.0,61,0.00,,,0.00,WUHU21623XXSP,2013-11-24 00:41:00,
2013-11-23 18:46:00,19.9,8.9,30.74,North,0,0.0,0.0,62,0.00,,,0.00,WUHU21623XXSP,2013-11-24 00:46:00,
2013-11-23 18:51:00,19.8,8.7,30.74,North,0,0.0,0.0,62,0.00,,,0.00,WUHU21623XXSP,2013-11-24 00:51:00,
2013-11-23 18:56:00,19.6,8.6,30.74,North,0,0.0,0.0,62,0.00,,,0.00,WUHU21623XXSP,2013-11-24 00:56:00,
2013-11-23 19:01:00,19.6,8.6,30.74,North,0,0.0,0.0,62,0.00,,,0.00,WUHU21623XXSP,2013-11-24 01:01:00,
2013-11-23 19:06:00,19.4,8.4,30.74,North,0,0.0,0.0,62,0.00,,,0.00,WUHU21623XXSP,2013-11-24 01:06:00,
2013-11-23 19:11:00,19.2,8.6,30.74,North,0,0.0,0.0,63,0.00,,,0.00,WUHU21623XXSP,2013-11-24 01:11:00,
2013-11-23 19:16:00,19.2,8.6,30.74,North,0,0.0,0.0,63,0.00,,,0.00,WUHU21623XXSP,2013-11-24 01:16:00,
2013-11-23 19:21:00,19.0,8.4,30.74,North,0,0.0,0.0,63,0.00,,,0.00,WUHU21623XXSP,2013-11-24 01:21:00,
2013-11-23 19:26:00,19.0,8.4,30.74,North,0,0.0,0.0,63,0.00,,,0.00,WUHU21623XXSP,2013-11-24 01:26:00,
2013-11-23 19:31:00,18.7,8.1,30.74,North,0,0.0,0.0,63,0.00,,,0.00,WUHU21623XXSP,2013-11-24 01:31:00,
2013-11-23 19:36:00,18.7,8.1,30.74,North,0,0.0,0.0,64,0.00,,,0.00,WUHU21623XXSP,2013-11-24 01:36:00,
2013-11-23 19:41:00,18.5,8.3,30.75,North,0,0.0,0.0,64,0.00,,,0.00,WUHU21623XXSP,2013-11-24 01:41:00,
2013-11-23 19:46:00,18.5,8.3,30.75,North,0,0.0,0.0,64,0.00,,,0.00,WUHU21623XXSP,2013-11-24 01:46:00,
2013-11-23 19:51:00,18.3,8.1,30.75,North,0,0.0,0.0,64,0.00,,,0.00,WUHU21623XXSP,2013-11-24 01:51:00,
2013-11-23 19:56:00,18.3,8.1,30.75,North,0,0.0,0.0,64,0.00,,,0.00,WUHU21623XXSP,2013-11-24 01:56:00,
2013-11-23 20:01:00,18.1,7.9,30.75,North,0,0.0,0.0,64,0.00,,,0.00,WUHU21623XXSP,2013-11-24 02:01:00,
2013-11-23 20:06:00,18.1,7.9,30.76,North,0,0.0,0.0,64,0.00,,,0.00,WUHU21623XXSP,2013-11-24 02:06:00,
2013-11-23 20:11:00,18.0,8.1,30.76,North,0,0.0,0.0,65,0.00,,,0.00,WUHU21623XXSP,2013-11-24 02:11:00,
2013-11-23 20:16:00,17.8,8.0,30.75,North,0,0.0,0.0,65,0.00,,,0.00,WUHU21623XXSP,2013-11-24 02:16:00,
2013-11-23 20:21:00,17.8,8.0,30.75,North,0,0.0,0.0,65,0.00,,,0.00,WUHU21623XXSP,2013-11-24 02:21:00,
2013-11-23 20:26:00,17.4,8.0,30.75,North,0,0.0,0.0,66,0.00,,,0.00,WUHU21623XXSP,2013-11-24 02:26:00,
2013-11-23 20:31:00,17.4,8.0,30.75,North,0,0.0,0.0,66,0.00,,,0.00,WUHU21623XXSP,2013-11-24 02:31:00,
2013-11-23 20:36:00,17.4,8.0,30.75,North,0,0.0,0.0,66,0.00,,,0.00,WUHU21623XXSP,2013-11-24 02:36:00,
2013-11-23 20:41:00,17.4,8.0,30.75,North,0,0.0,0.0,66,0.00,,,0.00,WUHU21623XXSP,2013-11-24 02:41:00,
2013-11-23 20:46:00,17.2,7.8,30.75,North,0,0.0,0.0,66,0.00,,,0.00,WUHU21623XXSP,2013-11-24 02:46:00,
2013-11-23 20:51:00,17.2,7.8,30.75,North,0,0.0,0.0,66,0.00,,,0.00,WUHU21623XXSP,2013-11-24 02:51:00,
2013-11-23 20:56:00,17.2,8.1,30.75,North,0,0.0,0.0,67,0.00,,,0.00,WUHU21623XXSP,2013-11-24 02:56:00,
2013-11-23 21:01:00,16.9,7.9,30.75,North,0,0.0,0.0,67,0.00,,,0.00,WUHU21623XXSP,2013-11-24 03:01:00,
2013-11-23 21:06:00,16.9,7.8,30.75,North,0,0.0,0.0,67,0.00,,,0.00,WUHU21623XXSP,2013-11-24 03:06:00,
2013-11-23 21:11:00,16.9,7.8,30.75,North,0,0.0,0.0,67,0.00,,,0.00,WUHU21623XXSP,2013-11-24 03:11:00,
2013-11-23 21:16:00,16.7,7.8,30.75,North,0,0.0,0.0,67,0.00,,,0.00,WUHU21623XXSP,2013-11-24 03:16:00,
2013-11-23 21:21:00,16.7,7.6,30.75,North,0,0.0,0.0,67,0.00,,,0.00,WUHU21623XXSP,2013-11-24 03:21:00,
2013-11-23 21:26:00,16.5,7.4,30.75,North,0,0.0,0.0,67,0.00,,,0.00,WUHU21623XXSP,2013-11-24 03:26:00,
2013-11-23 21:31:00,16.5,7.7,30.75,North,0,0.0,0.0,68,0.00,,,0.00,WUHU21623XXSP,2013-11-24 03:31:00,
2013-11-23 21:36:00,16.3,7.6,30.75,North,0,0.0,0.0,68,0.00,,,0.00,WUHU21623XXSP,2013-11-24 03:36:00,
2013-11-23 21:41:00,16.3,7.6,30.75,North,0,0.0,0.0,68,0.00,,,0.00,WUHU21623XXSP,2013-11-24 03:41:00,
2013-11-23 21:46:00,16.3,7.9,30.75,North,0,0.0,0.0,69,0.00,,,0.00,WUHU21623XXSP,2013-11-24 03:46:00,
2013-11-23 21:51:00,16.2,7.9,30.75,North,0,0.0,0.0,69,0.00,,,0.00,WUHU21623XXSP,2013-11-24 03:51:00,
2013-11-23 21:56:00,16.2,7.7,30.75,North,0,0.0,0.0,69,0.00,,,0.00,WUHU21623XXSP,2013-11-24 03:56:00,
2013-11-23 22:01:00,16.0,7.5,30.75,North,0,0.0,0.0,69,0.00,,,0.00,WUHU21623XXSP,2013-11-24 04:01:00,
2013-11-23 22:06:00,16.0,7.5,30.75,North,0,0.0,0.0,69,0.00,,,0.00,WUHU21623XXSP,2013-11-24 04:06:00,
2013-11-23 22:11:00,15.8,7.4,30.75,North,0,0.0,0.0,69,0.00,,,0.00,WUHU21623XXSP,2013-11-24 04:11:00,
2013-11-23 22:16:00,15.6,7.2,30.75,North,0,0.0,0.0,69,0.00,,,0.00,WUHU21623XXSP,2013-11-24 04:16:00,
2013-11-23 22:21:00,15.6,7.5,30.75,North,0,0.0,0.0,70,0.00,,,0.00,WUHU21623XXSP,2013-11-24 04:21:00,
2013-11-23 22:26:00,15.6,7.5,30.75,North,0,0.0,0.0,70,0.00,,,0.00,WUHU21623XXSP,2013-11-24 04:26:00,
2013-11-23 22:31:00,15.6,7.5,30.75,North,0,0.0,0.0,70,0.00,,,0.00,WUHU21623XXSP,2013-11-24 04:31:00,
2013-11-23 22:36:00,15.4,7.5,30.75,North,0,0.0,0.0,70,0.00,,,0.00,WUHU21623XXSP,2013-11-24 04:36:00,
2013-11-23 22:41:00,15.4,7.4,30.75,North,0,0.0,0.0,70,0.00,,,0.00,WUHU21623XXSP,2013-11-24 04:41:00,
2013-11-23 22:46:00,15.3,7.2,30.75,North,0,0.0,0.0,70,0.00,,,0.00,WUHU21623XXSP,2013-11-24 04:46:00,
2013-11-23 22:51:00,15.3,7.2,30.75,North,0,0.0,0.0,70,0.00,,,0.00,WUHU21623XXSP,2013-11-24 04:51:00,
2013-11-23 22:56:00,15.1,7.3,30.75,North,0,0.0,0.0,71,0.00,,,0.00,WUHU21623XXSP,2013-11-24 04:56:00,
2013-11-23 23:01:00,14.9,7.2,30.75,North,0,0.0,0.0,71,0.00,,,0.00,WUHU21623XXSP,2013-11-24 05:01:00,
2013-11-23 23:04:00,14.9,7.2,30.75,North,0,0.0,0.0,71,0.00,,,0.00,WUHU21623XXSP,2013-11-24 05:04:00,
2013-11-23 23:09:00,14.9,7.2,30.75,North,0,0.0,0.0,71,0.00,,,0.00,WUHU21623XXSP,2013-11-24 05:09:00,
2013-11-23 23:14:00,14.9,7.2,30.76,North,0,0.0,0.0,71,0.00,,,0.00,WUHU21623XXSP,2013-11-24 05:14:00,
2013-11-23 23:19:00,14.7,7.3,30.75,North,0,0.0,0.0,72,0.00,,,0.00,WUHU21623XXSP,2013-11-24 05:19:00,
2013-11-23 23:24:00,14.7,7.3,30.76,North,0,0.0,0.0,72,0.00,,,0.00,WUHU21623XXSP,2013-11-24 05:24:00,
2013-11-23 23:29:00,14.7,7.3,30.75,North,0,0.0,0.0,72,0.00,,,0.00,WUHU21623XXSP,2013-11-24 05:29:00,
2013-11-23 23:34:00,14.7,7.3,30.75,North,0,0.0,0.0,72,0.00,,,0.00,WUHU21623XXSP,2013-11-24 05:34:00,
2013-11-23 23:36:00,14.5,7.3,30.75,North,0,0.0,0.0,72,0.00,,,0.00,WUHU21623XXSP,2013-11-24 05:36:00,
2013-11-23 23:41:00,14.5,7.4,30.75,North,0,0.0,0.0,73,0.00,,,0.00,WUHU21623XXSP,2013-11-24 05:41:00,
2013-11-23 23:46:00,14.4,7.4,30.75,North,0,0.0,0.0,73,0.00,,,0.00,WUHU21623XXSP,2013-11-24 05:46:00,
2013-11-23 23:51:00,14.4,7.3,30.75,North,0,0.0,0.0,73,0.00,,,0.00,WUHU21623XXSP,2013-11-24 05:51:00,
2013-11-23 23:56:00,14.4,7.3,30.75,North,0,0.0,0.0,73,0.00,,,0.00,WUHU21623XXSP,2013-11-24 05:56:00,